TimeCST,TemperatureF,Dew PointF,Humidity,Sea Level PressureIn,VisibilityMPH,Wind Direction,Wind SpeedMPH,Gust SpeedMPH,PrecipitationIn,Events,Conditions,WindDirDegrees,DateUTC
12:54 AM,6.1,-0.0,76,30.23,8.0,WNW,3.5,-,N/A,,Overcast,300,2013-02-16 06:54:00
1:54 AM,6.1,1.0,80,30.21,8.0,NW,3.5,-,0.00,,Overcast,310,2013-02-16 07:54:00
2:54 AM,5.0,-0.0,80,30.20,10.0,NW,5.8,-,N/A,,Overcast,310,2013-02-16 08:54:00
3:54 AM,3.9,-2.0,76,30.19,10.0,NNW,6.9,-,N/A,,Overcast,330,2013-02-16 09:54:00
4:54 AM,3.0,-2.9,76,30.19,10.0,WNW,5.8,-,N/A,,Overcast,300,2013-02-16 10:54:00
5:54 AM,-4.0,-8.0,83,30.20,10.0,NW,6.9,-,N/A,,Clear,320,2013-02-16 11:54:00
6:54 AM,-4.0,-7.1,87,30.21,10.0,NW,5.8,-,N/A,,Clear,320,2013-02-16 12:54:00
7:54 AM,-5.1,-8.0,87,30.23,10.0,NW,6.9,-,N/A,,Clear,320,2013-02-16 13:54:00
8:54 AM,-0.0,-4.0,83,30.22,10.0,NW,5.8,-,N/A,,Clear,320,2013-02-16 14:54:00
9:54 AM,6.1,-0.0,76,30.22,10.0,NW,5.8,-,N/A,,Clear,320,2013-02-16 15:54:00
10:54 AM,9.0,-2.9,59,30.22,10.0,NNW,10.4,-,N/A,,Clear,340,2013-02-16 16:54:00
11:54 AM,10.0,-2.0,58,30.21,10.0,NNW,10.4,-,N/A,,Partly Cloudy,330,2013-02-16 17:54:00
12:54 PM,10.0,-2.0,58,30.20,10.0,WNW,5.8,-,N/A,,Partly Cloudy,290,2013-02-16 18:54:00
1:54 PM,12.0,-2.0,53,30.19,10.0,WNW,8.1,-,N/A,,Scattered Clouds,290,2013-02-16 19:54:00
2:54 PM,10.9,-2.0,56,30.19,10.0,NW,8.1,-,N/A,,Clear,310,2013-02-16 20:54:00
3:54 PM,10.9,-2.9,54,30.19,10.0,West,4.6,-,N/A,,Clear,270,2013-02-16 21:54:00
4:54 PM,10.0,-4.0,53,30.20,10.0,West,4.6,-,N/A,,Clear,260,2013-02-16 22:54:00
5:54 PM,7.0,-5.1,58,30.22,10.0,WSW,3.5,-,N/A,,Clear,240,2013-02-16 23:54:00
6:54 PM,1.0,-7.1,69,30.23,10.0,Calm,Calm,-,N/A,,Clear,0,2013-02-17 00:54:00
7:54 PM,1.9,-7.1,66,30.23,10.0,Calm,Calm,-,N/A,,Clear,0,2013-02-17 01:54:00
8:54 PM,-0.0,-7.1,72,30.23,10.0,Calm,Calm,-,N/A,,Clear,0,2013-02-17 02:54:00
9:54 PM,-4.0,-9.0,79,30.24,10.0,Calm,Calm,-,N/A,,Clear,0,2013-02-17 03:54:00
10:54 PM,-2.9,-9.0,75,30.22,10.0,Calm,Calm,-,N/A,,Clear,0,2013-02-17 04:54:00
11:54 PM,-4.0,-11.0,72,30.21,10.0,Calm,Calm,-,N/A,,Clear,0,2013-02-17 05:54:00